User: anonymous   Login
Location: Unspecified
(0.0000°N, 0.0000°E)
Time: 13:16:33
(UTC+01:00)
Language:

Meteor 1-31 Rocket - Orbit

View from above orbital plane
View from above orbital plane
View from above satellite
View from above satellite

Ground track
Ground track

The orbit data is extracted from the following two-line orbital elements,

1 12586U 81065B   18054.59706342 +.00000187 +00000-0 +15308-4 0  9993
2 12586 097.5266 036.3023 0020362 059.5645 300.7593 15.10213117990279
Epoch (UTC): 23 February 2018 14:19:46
Eccentricity: 0.0020362
inclination: 97.5266°
perigee height: 521 km
apogee height: 549 km
right ascension of ascending node: 36.3023°
argument of perigee: 59.5645°
revolutions per day: 15.10213117
mean anomaly at epoch: 300.7593°
orbit number at epoch: 99027

The dashed part of the orbit path shows where the satellite is in the earth's shadow,  

DLR